Dewpoint
18 15 14 14 14 14 14 17 19 19 19 18 17 20 29 24 35 42 46 49 52 49 48 47 47 46 51 54 56 57 58 57 58 59 60 60 60 61 61 62 62 62 61 63 67 68 68 68 69 71 70 68 64 63 64 64 66 67 68 68 68 68 68 69 69 70 70 70 71 71 71 71 72 72 72 72 72 72 72 72 73 75 75 75 76 75
16 17 14 14 14 15 14 14 14 15 16 16 16 16 18 30 21 39 42 50 50 45 41 45 44 44 51 54 56 58 56 55 57 58 59 60 60 60 60 61 62 62 67 66 66 67 68 69 70 71 70 69 66 64 64 64 65 67 67 68 68 68 68 69 69 70 70 70 70 70 71 71 71 71 72 72 71 71 72 72 73 75 74 75 75 76
18 12 12 14 15 15 15 14 14 13 11 14 12 19 20 21 31 39 48 51 51 45 38 39 39 36 47 54 55 56 56 55 56 57 57 58 58 59 60 60 61 64 66 65 65 67 68 70 70 71 70 69 69 67 64 64 65 66 67 68 68 68 68 69 70 69 69 70 71 70 70 71 71 71 72 72 71 72 72 72 74 74 74 74 74 75
15 14 14 14 15 15 14 14 13 13 10 9 9 13 10 30 11 20 41 48 50 41 38 37 32 44 52 55 56 57 55 56 58 59 58 58 57 58 59 59 61 65 64 64 65 67 69 70 70 70 69 68 69 68 65 65 65 66 67 68 68 68 68 69 70 70 69 70 70 71 71 71 70 70 72 72 72 72 72 72 73 74 74 74 73 74
10 13 15 15 14 14 13 13 13 11 7 7 7 7 9 9 11 20 36 43 48 44 48 38 39 42 49 52 53 58 62 60 59 60 59 59 59 60 61 62 64 65 64 64 65 66 68 68 69 69 69 69 69 69 68 65 65 66 66 67 68 69 68 69 71 70 69 70 70 70 71 71 71 71 71 71 71 72 72 73 73 73 73 74 73 73
9 11 15 16 14 14 13 12 11 8 4 4 6 5 6 6 8 30 37 35 33 35 46 41 34 40 47 51 52 57 56 56 58 57 58 58 59 61 61 61 64 66 65 64 64 65 66 67 68 68 69 69 68 67 68 68 66 66 67 68 68 69 69 69 70 70 70 70 69 69 69 69 69 69 69 69 69 71 71 72 72 73 73 73 73 73
12 13 14 13 12 12 13 13 8 6 4 5 4 7 6 4 5 31 34 33 29 24 38 45 34 37 44 49 52 55 53 53 57 57 58 60 61 61 61 62 63 64 65 65 65 65 66 67 67 66 67 67 67 67 68 69 69 67 68 68 68 69 69 69 70 70 70 70 68 69 69 69 68 68 69 69 70 71 71 72 72 73 72 73 72 72
15 12 12 11 10 10 9 8 9 8 4 9 5 11 10 12 12 28 27 32 32 41 45 45 41 40 41 45 51 52 54 53 55 57 58 60 60 60 61 62 63 64 63 64 64 65 65 66 66 67 67 67 67 68 69 70 70 70 70 69 69 69 70 70 70 70 70 69 68 68 68 69 68 68 68 69 69 71 72 72 72 72 72 73 72 72
16 12 10 11 9 9 8 10 11 11 6 7 10 13 10 10 16 23 23 28 35 33 29 38 42 35 39 43 51 54 53 55 55 58 59 60 59 59 60 61 63 64 63 63 63 65 66 66 67 67 68 70 70 70 69 69 69 70 71 70 70 70 70 70 70 70 70 70 69 69 68 69 69 68 68 69 70 71 72 71 72 72 72 72 72 72
17 13 11 10 11 10 10 10 10 9 11 8 12 15 15 20 23 25 26 30 33 25 29 33 38 27 31 44 48 49 53 54 56 58 59 61 60 59 59 60 61 63 64 64 64 64 65 65 66 68 69 69 69 71 71 70 69 70 70 71 70 70 71 70 70 70 70 69 69 69 68 68 68 69 68 69 70 70 71 71 71 72 71 71 71 71
16 29 29 16 13 11 10 10 9 10 9 13 16 11 13 23 32 45 37 36 33 23 29 29 31 31 27 38 46 49 52 54 55 57 59 60 61 61 60 60 61 62 63 64 65 65 66 66 66 66 66 68 71 71 70 69 69 69 69 70 70 70 71 72 70 70 70 69 69 69 68 68 68 68 68 69 69 70 71 70 71 71 71 71 71 71
17 17 17 15 21 17 12 15 15 13 14 10 10 14 13 21 33 37 42 38 25 24 31 33 33 34 29 34 43 47 49 54 55 56 57 58 60 61 61 62 61 62 63 63 64 65 65 65 66 68 68 70 70 70 70 69 69 69 69 69 69 69 70 70 71 71 72 72 69 69 69 68 68 68 68 68 69 70 70 70 70 71 71 70 70 70
14 14 16 15 27 14 15 11 10 10 9 8 10 27 10 17 24 18 29 19 22 19 26 34 39 37 35 40 40 42 49 53 55 56 55 57 60 61 61 61 62 62 63 63 63 64 64 64 67 69 69 69 69 69 69 69 69 68 68 68 68 68 69 69 71 70 71 71 70 69 69 69 69 69 69 69 69 70 70 69 70 70 70 70 70 69
12 15 14 14 14 21 10 8 10 5 9 8 9 21 17 14 15 15 27 27 27 32 34 36 43 36 38 42 45 44 50 53 54 54 55 57 59 59 60 60 61 63 62 63 64 64 64 65 67 69 69 69 69 69 69 69 68 68 68 68 68 68 68 68 70 70 70 71 71 70 70 69 70 69 69 70 69 70 70 70 70 70 69 69 69 69
13 13 15 13 10 14 11 9 7 7 8 8 9 12 18 19 20 18 23 19 23 30 35 44 33 33 35 38 47 46 50 52 53 55 56 56 56 58 58 59 61 62 64 64 64 64 65 67 69 69 69 69 69 70 69 69 68 68 68 68 68 68 68 68 69 70 70 71 71 71 70 70 70 69 69 70 70 70 70 70 70 69 69 69 69 69
11 12 13 16 12 12 9 11 10 10 10 11 10 13 13 16 28 13 26 25 30 29 30 35 35 40 39 44 53 51 52 54 56 57 58 58 60 59 58 59 60 60 62 64 65 65 67 68 69 69 69 69 69 70 70 70 69 68 68 68 68 68 68 68 69 69 70 70 71 72 71 70 70 71 70 70 71 71 70 70 70 70 70 69 69 70
22 12 13 17 18 11 10 12 16 11 11 14 10 13 11 14 24 30 34 31 33 31 32 40 38 39 43 43 46 51 52 53 55 56 56 58 59 58 57 57 58 59 61 63 64 65 66 66 67 68 69 69 69 69 69 69 69 69 69 68 68 69 70 70 69 69 70 70 70 71 72 72 71 71 70 70 71 70 70 70 71 71 71 70 69 69
11 10 11 14 13 11 11 12 11 11 11 11 12 14 18 20 21 20 15 30 28 23 28 38 36 36 38 37 46 49 51 53 54 55 55 57 58 56 57 58 60 61 63 64 65 65 66 66 67 67 68 69 69 68 68 69 69 69 69 69 68 69 69 70 70 69 70 70 70 71 71 71 71 70 70 71 71 71 71 70 71 71 71 70 69 69
11 9 14 15 14 13 16 14 14 14 12 9 9 17 11 18 13 22 26 19 17 22 27 33 37 40 39 40 46 46 47 50 52 54 55 56 56 56 58 59 61 62 63 64 64 65 65 66 66 67 68 69 68 69 68 69 69 69 69 70 69 69 70 70 71 71 70 71 71 71 71 71 71 70 71 71 71 71 70 70 71 71 71 71 71 71
16 10 16 20 14 17 16 13 15 13 13 16 16 11 21 19 22 22 20 30 25 22 30 30 38 34 42 42 43 44 46 48 50 52 52 54 55 56 59 59 60 61 62 63 64 64 65 65 66 67 68 68 68 68 69 69 69 69 70 70 70 70 70 69 70 70 70 71 71 71 72 72 72 71 71 71 70 70 70 70 70 70 71 71 72 70
13 20 14 19 19 16 17 17 13 15 13 10 10 11 13 25 20 19 30 25 28 32 29 29 29 36 39 46 45 44 46 47 50 51 53 53 54 57 58 61 62 62 63 64 64 64 65 65 66 67 69 69 69 69 69 68 69 69 69 69 69 68 69 69 70 70 70 70 70 71 71 71 72 72 72 70 70 69 70 70 70 70 70 71 71 70
20 16 13 23 14 18 19 17 13 14 12 9 10 11 11 16 20 16 19 28 35 33 30 31 30 38 43 52 50 45 47 48 51 51 53 53 57 60 61 62 62 63 63 64 64 64 64 65 67 68 67 68 68 68 68 68 69 69 69 69 68 68 68 69 70 70 70 70 70 70 71 71 71 72 71 70 71 70 69 69 70 70 71 70 70 70
14 25 19 21 19 17 15 16 22 17 20 14 10 12 15 16 22 20 17 21 27 32 36 35 31 31 40 50 51 50 51 50 52 53 55 56 59 61 61 61 62 62 63 63 64 64 65 66 66 67 67 66 68 68 68 68 68 68 69 69 69 69 69 70 70 70 71 71 70 71 71 72 71 71 71 71 72 71 69 69 70 71 70 69 70 70
57 22 22 26 32 31 23 23 25 24 19 18 18 21 18 18 14 21 27 27 28 31 27 31 35 35 45 54 54 51 53 53 54 53 55 57 60 60 60 62 62 62 63 64 65 65 65 66 66 66 65 66 66 67 67 67 67 68 69 69 69 69 70 70 70 71 70 70 70 71 70 71 72 71 72 71 72 72 71 71 71 71 70 70 70 70
24 31 26 27 29 32 29 27 26 23 21 21 20 20 22 22 21 24 29 34 29 30 29 28 25 33 42 55 55 52 51 52 53 54 55 57 59 60 61 62 63 62 62 63 64 64 65 65 65 65 65 65 66 66 67 68 68 68 69 69 69 69 70 70 70 70 70 70 70 70 70 70 72 72 71 71 72 72 72 72 71 71 70 70 71 70
25 34 32 24 22 19 19 21 22 19 23 25 26 21 21 20 22 21 26 31 27 37 34 31 30 37 47 53 52 50 49 50 52 54 55 58 60 61 62 63 63 62 62 62 63 64 64 64 64 64 64 65 66 66 67 67 69 69 69 69 70 70 71 70 70 70 70 70 69 70 71 71 71 71 71 71 71 71 71 71 71 72 71 71 71 71
30 37 39 36 30 27 30 33 32 35 21 17 16 16 18 19 19 31 35 33 25 34 33 36 33 36 48 50 50 50 49 47 47 52 54 58 61 61 62 63 63 63 63 63 63 63 63 64 64 64 64 65 66 67 67 68 69 69 69 69 70 70 71 70 69 69 70 70 70 69 71 71 71 70 70 70 70 70 70 71 70 71 71 71 71 71
34 25 30 38 34 27 29 33 25 24 20 19 18 17 18 19 22 22 23 22 36 29 27 38 44 42 46 48 49 49 49 49 48 50 54 58 61 61 62 63 66 64 63 63 63 63 64 64 64 64 65 65 65 66 67 67 69 69 69 69 69 69 69 70 70 69 69 70 70 70 70 70 70 71 71 71 70 70 70 71 71 71 72 72 70 71
33 27 29 24 24 24 21 21 32 26 22 23 19 21 24 23 25 20 24 30 30 25 21 35 45 41 43 47 48 48 48 49 50 50 54 58 60 61 62 64 64 64 64 63 63 63 64 64 64 64 65 65 65 65 66 67 67 69 69 70 69 69 69 69 69 69 69 69 69 69 69 69 70 71 70 71 70 71 71 71 71 71 71 72 70 70
30 32 30 23 26 23 21 20 24 24 24 23 22 21 19 18 25 22 22 20 25 33 32 39 44 37 40 45 48 48 48 48 51 52 55 57 59 60 61 63 64 64 64 63 63 63 64 64 64 65 65 65 66 65 66 66 66 68 69 69 69 70 70 70 69 69 69 69 69 69 69 69 69 70 70 70 69 69 70 70 71 71 71 71 71 70
26 29 48 26 26 30 26 30 28 27 28 26 23 22 21 21 21 26 25 22 35 38 37 40 41 39 42 47 48 49 49 52 53 53 54 56 58 59 59 60 62 64 64 64 64 64 64 64 65 65 65 66 65 66 66 65 66 67 68 68 69 69 70 70 69 69 69 68 69 69 69 69 69 69 69 69 69 70 70 70 70 70 70 70 70 70
32 31 33 33 26 29 30 27 27 26 26 28 28 28 26 22 25 25 25 27 27 38 40 39 40 38 40 45 49 50 49 49 50 51 52 55 57 58 58 58 59 62 64 64 64 65 65 65 65 65 65 65 65 66 66 66 66 66 67 67 68 69 69 69 69 69 69 68 69 70 70 69 69 69 69 69 69 69 70 70 69 69 70 70 70 70
35 33 30 35 30 33 33 27 26 26 25 25 30 26 31 28 31 25 26 34 32 37 37 34 33 37 39 48 46 48 49 48 50 50 51 54 55 56 57 57 58 59 63 64 65 65 65 65 65 65 65 65 65 66 67 66 67 67 67 68 68 70 69 69 69 68 69 69 69 69 70 70 69 69 69 69 69 69 70 70 69 69 69 69 70 70
35 36 33 37 29 33 31 30 31 26 24 25 34 29 32 27 26 25 25 25 26 38 35 34 36 40 46 48 45 47 48 48 50 52 53 53 53 54 55 56 57 58 62 65 66 65 65 66 66 66 66 66 66 67 67 69 67 67 68 69 69 69 69 69 68 68 69 69 69 69 69 70 70 70 69 70 70 70 70 70 69 70 69 69 70 69
31 34 30 38 28 30 33 33 30 25 26 33 33 29 27 26 27 26 26 27 37 44 41 37 37 41 47 47 46 47 48 49 52 53 53 53 53 52 53 54 55 58 63 65 66 66 66 66 65 65 66 67 68 68 68 69 70 69 69 69 69 70 69 69 68 69 69 69 69 69 69 70 70 69 69 69 69 69 70 69 69 69 69 70 69 69
30 29 33 31 31 32 27 31 22 28 36 39 33 30 30 31 32 32 30 35 44 46 46 38 39 44 48 47 48 48 50 52 53 54 54 55 53 52 51 54 57 60 63 66 66 66 66 65 65 66 66 68 69 69 69 69 70 70 70 71 70 70 70 70 69 69 69 69 69 68 69 69 69 70 70 69 69 69 69 69 69 69 70 70 69 69
28 36 32 26 35 26 32 29 26 37 28 31 31 32 29 31 30 29 25 32 43 48 48 42 41 45 48 50 50 51 53 53 51 52 55 55 54 51 51 55 60 60 64 66 66 66 66 66 67 67 68 68 68 68 69 69 70 70 69 70 70 70 70 70 69 69 69 69 68 68 68 68 69 69 70 69 69 69 69 68 68 69 70 69 69 69
29 27 31 26 31 29 27 25 27 25 24 33 39 36 42 42 38 32 30 32 43 47 50 49 43 46 49 50 51 53 53 49 48 49 52 54 55 52 54 56 60 61 64 66 66 66 66 67 67 69 69 68 68 68 69 70 70 69 69 69 69 69 68 68 69 68 69 68 69 68 68 68 69 69 70 69 69 69 69 69 69 69 70 69 68 68
27 29 33 25 28 29 27 23 24 23 31 39 37 39 43 44 42 42 39 38 45 50 51 51 45 47 49 50 52 52 49 47 47 48 50 54 54 54 56 58 60 61 63 65 65 65 67 67 68 70 69 68 68 69 70 70 70 69 69 70 69 69 68 68 68 68 68 68 69 69 69 69 69 69 69 70 70 69 69 69 69 69 70 69 69 68
41 36 29 31 29 31 33 27 26 29 30 40 43 44 46 50 45 31 27 31 46 51 52 51 46 47 49 50 52 49 47 45 46 48 50 53 52 54 56 58 59 61 63 64 65 66 67 69 70 70 69 69 69 70 70 70 70 70 69 69 68 69 68 69 69 68 68 67 67 68 69 69 69 69 69 69 69 69 69 70 69 69 70 70 70 70
39 41 39 35 29 33 34 27 26 29 44 47 46 46 48 48 45 36 28 46 53 51 51 51 52 55 50 51 50 47 46 45 46 48 50 53 51 52 53 55 58 61 62 63 65 69 69 69 70 70 70 70 70 71 71 70 69 70 70 68 68 68 69 69 68 68 67 67 67 67 67 69 69 69 69 69 69 69 70 70 69 69 69 69 69 69
41 43 45 41 36 35 34 26 26 31 43 47 47 48 52 43 37 43 48 53 53 53 53 51 51 54 54 51 51 49 46 49 53 51 51 51 50 51 52 56 59 60 61 64 68 69 69 69 68 69 69 70 70 71 71 70 70 70 69 68 68 68 68 67 67 67 66 66 66 67 67 68 68 69 69 69 70 69 70 70 70 70 69 69 69 69
41 39 39 38 41 40 40 37 31 27 42 47 50 50 53 41 43 50 54 56 56 55 55 54 54 54 54 53 57 57 54 52 52 50 50 50 49 52 55 58 59 61 63 67 68 69 69 69 69 69 69 70 70 71 71 70 70 69 70 68 69 69 68 67 67 66 66 67 67 67 67 67 69 69 70 70 70 70 69 70 70 70 70 69 69 68
47 40 40 42 43 37 37 37 33 43 45 50 52 50 52 54 55 57 56 55 57 56 57 56 56 56 56 55 55 54 56 55 52 51 51 52 51 52 56 59 60 62 65 67 68 69 69 69 69 69 70 70 71 71 70 70 70 70 69 68 67 68 69 68 67 67 67 68 68 67 67 67 68 68 68 70 70 70 69 69 69 68 70 69 69 69
47 46 46 39 45 42 41 46 49 53 53 53 52 53 54 56 57 58 57 58 58 59 59 58 59 59 58 56 54 54 51 54 57 53 50 50 51 54 58 59 61 64 66 67 68 69 69 69 68 69 69 69 70 70 70 69 70 70 68 66 69 69 69 69 68 68 68 67 67 69 67 67 67 68 68 69 70 69 69 68 67 67 68 69 69 68
46 44 45 49 48 50 52 52 53 51 52 53 52 53 53 54 56 57 57 58 58 60 62 61 60 60 59 58 56 55 53 53 53 54 55 55 56 59 61 61 62 64 65 66 68 68 67 68 68 68 68 67 67 68 69 68 69 69 67 67 69 68 68 68 69 69 68 68 67 67 68 67 66 67 67 68 68 68 68 68 67 67 67 67 67 66
43 42 39 45 50 40 38 50 49 50 53 57 52 53 54 54 54 58 57 58 59 61 61 62 62 63 61 60 60 58 57 56 55 54 57 55 60 62 62 62 63 63 64 66 67 67 67 67 67 67 67 65 65 66 66 66 67 68 68 68 68 67 67 67 68 69 68 68 67 66 66 66 65 65 65 65 66 66 67 67 67 67 67 68 67 66
41 42 37 46 45 44 43 49 53 52 55 58 56 53 54 55 55 57 57 58 59 59 59 60 61 61 61 60 61 60 59 59 58 57 56 57 61 63 62 62 62 62 65 66 67 67 67 67 67 66 65 65 65 65 66 66 67 67 66 66 66 67 66 68 68 68 67 67 67 66 65 66 70 67 64 64 64 64 64 65 65 65 66 66 66 66
40 41 35 43 39 44 47 51 52 48 47 55 58 57 57 57 56 56 56 55 59 59 59 60 62 62 62 61 61 60 59 59 59 59 59 56 60 62 63 62 62 63 65 66 67 67 67 67 66 66 65 65 65 65 65 65 65 64 64 65 65 66 66 66 68 68 66 67 66 66 67 66 66 65 64 64 64 63 63 64 64 64 65 65 64 65
37 35 41 37 35 35 40 48 51 45 46 49 50 54 53 56 57 57 56 54 57 59 59 61 62 62 62 62 61 61 59 59 59 60 59 60 60 62 62 62 62 64 66 67 67 67 67 67 67 66 65 65 65 64 64 63 64 64 64 64 64 65 66 66 66 65 65 66 66 66 67 66 65 65 65 65 64 63 63 63 56 61 64 64 63 58
37 38 37 37 37 38 42 45 50 50 49 50 49 53 56 57 56 54 54 53 54 59 61 63 62 62 61 61 62 61 60 59 60 60 60 60 61 62 62 63 63 65 66 67 67 67 67 67 67 66 65 65 64 64 64 63 63 63 63 64 64 64 65 65 65 65 65 66 66 67 68 66 65 66 65 65 64 65 64 64 62 48 48 60 62 53